Regional Weather Roundup
Issued by NWS

Home | Current Version | Previous Version | Text Only | Print | Product List | Glossary Off
Versions: 1 2 3 4 5 6 7 8 9 10 11 12 13 14 15 16 17 18 19 20 21 22 23 24 25 26 27 28 29 30 31 32 33 34 35 36 37 38 39 40 41 42 43 44 45 46 47 48 49 50

000
ASUS43 KMKX 301710
RWRWI

WISCONSIN REGIONAL WEATHER ROUNDUP
NATIONAL WEATHER SERVICE MILWAUKEE/SULLIVAN WI
1200 PM CDT MON MAR 30 2015

NOTE: "FAIR" INDICATES FEW OR NO CLOUDS BELOW 12,000 FEET WITH NO
SIGNIFICANT WEATHER AND/OR OBSTRUCTIONS TO VISIBILITY.

WIZ001-002-006>008-014>016-023>028-301800-
NORTHWEST WISCONSIN

CITY           SKY/WX    TMP DP  RH WIND       PRES   REMARKS
SUPERIOR ARPT  CLOUDY    48  25  40 SW5       29.93F
ASHLAND        MOSUNNY   52  24  33 VRB5      29.93S
HAYWARD        CLOUDY    46  25  43 VRB3      29.94S
SIREN          LGT RAIN  40  33  75 SW5       29.98R
CUMBERLAND     DRIZZLE   41  32  70 W10       29.97S
RICE LAKE      DRIZZLE   45  32  60 W14       29.99R
CHETEK         CLOUDY    45  32  61 SW10      29.98R
LADYSMITH      CLOUDY    49  24  36 W3        29.96S
EAU CLAIRE     LGT RAIN  45  33  63 N6        29.97S
MENOMONIE      CLOUDY    46  32  59 CALM      29.97F
NEW RICHMOND   CLOUDY    45  31  58 NE8       29.95F
OSCEOLA        LGT RAIN  46  33  61 NE7       29.97F
$$

WIZ003>005-009-010-017-018-301800-
NORTH CENTRAL WISCONSIN

CITY           SKY/WX    TMP DP  RH WIND       PRES   REMARKS
MANITOWISH WTR SUNNY     43  22  44 NW15      29.90R
ARBOR VITAE    MOSUNNY   47  28  47 W12       29.90S
WOODRUFF       MOSUNNY   47  28  47 W12       29.90S
RHINELANDER    MOSUNNY   48  24  39 W15G22    29.91R
EAGLE RIVER    SUNNY     46  22  40 N12       29.89R
LAND O LAKES   SUNNY     44  20  38 NW15G22   29.89S
PHILLIPS       CLOUDY    47  23  38 NW10      29.92S
TOMAHAWK       MOSUNNY   49  22  34 NW14      29.92S
MEDFORD        MOSUNNY   47  26  44 W10       29.93S
MERRILL        MOSUNNY   50  25  37 NW14G22   29.91F
$$

WIZ029-030-035-036-043>047-301800-
CENTRAL WISCONSIN

CITY           SKY/WX    TMP DP  RH WIND       PRES   REMARKS
WAUSAU         MOSUNNY   51  22  31 NW14      29.90F
MOSINEE        SUNNY     50  25  37 NW14G21   29.94S
MARSHFIELD     MOSUNNY   50  30  46 W8        29.95S
STEVENS POINT  SUNNY     49  24  37 NW13G18   29.94F
WAUPACA        SUNNY     56  22  27 W12G20    29.94S
WAUTOMA        MOSUNNY   55  28  35 W15G21    29.95F
WISC RAPIDS    SUNNY     52  25  35 NW9       29.96S
CAMP DOUGLAS   CLOUDY    54  30  40 W9        29.95S
$$

WIZ011>013-019>022-031-037>040-048>050-301800-
NORTHEAST WISCONSIN

CITY           SKY/WX    TMP DP  RH WIND       PRES   REMARKS
ANTIGO         SUNNY     46  26  44 W16G26    29.91R
SHAWANO        SUNNY     53  23  31 NW14G21   29.93R
OCONTO         SUNNY     50  24  36 NW7G16    29.90S
STURGEON BAY   SUNNY     46  30  53 NW9G16    29.93S
GREEN BAY      SUNNY     51  30  44 NW18G24   29.93S
MANITOWOC      SUNNY     51  28  41 NW20G25   29.93S
APPLETON       MOSUNNY   52  25  35 W12G17    29.94S
CLINTONVILLE   SUNNY     52  23  32 NW15      29.93R
OSHKOSH        MOSUNNY   53  28  38 W15G21    29.95S
$$

WIZ032>034-041-042-053>061-301800-
SOUTHWEST WISCONSIN

CITY           SKY/WX    TMP DP  RH WIND       PRES   REMARKS
LA CROSSE      CLOUDY    51  27  39 NW6       29.98S
SPARTA         CLOUDY    50  28  43 W8        29.98S
VIROQUA        CLOUDY    49  31  48 W8        29.98S
BOSCOBEL       LGT RAIN  55  28  35 W12       29.99F
PRAIRIE DU CHI MOSUNNY   57  29  34 W10       29.99S
PLATTEVILLE    SUNNY     56  32  39 SW18      30.00S
$$

WIZ056-057-062-063-064-067-068-301800-
SOUTH CENTRAL WISCONSIN

CITY           SKY/WX    TMP DP  RH WIND       PRES   REMARKS
REEDSBURG      MOSUNNY   54  31  42 W8        29.96S
BARABOO/DELLS  MOSUNNY   54  27  36 W12G17    29.96S
LONE ROCK      MOSUNNY   56  29  35 W13       29.98F
MINERAL POINT  PTSUNNY   50  30  46 W6        30.00S
MADISON        PTSUNNY   55  27  34 W16G23    29.97F
MIDDLETON        N/A     58  23  25 W16       29.97F
WATERTOWN      MOSUNNY   53  31  43 W10       29.96F
MONROE         MOSUNNY   54  32  43 W16       29.99F
JANESVILLE     MOSUNNY   57  27  30 SW15      30.00F
$$

WIZ051-052-058>065-066-070>072-301800-
SOUTHEAST WISCONSIN

CITY           SKY/WX    TMP DP  RH WIND       PRES   REMARKS
MILWAUKEE      PTSUNNY   54  24  31 W15G23    29.98F
WAUKESHA       PTSUNNY   52  28  40 W12G21    29.98F
MILWAUKEE/TIMM PTSUNNY   54  23  30 W9G18     29.98F
RACINE         MOSUNNY   55  26  32 NW10      30.00F
BURLINGTON     MOSUNNY   53  27  36 W14G21    29.99F
KENOSHA        MOSUNNY   55  30  38 W15G25    30.00F
FOND DU LAC    SUNNY     53  30  41 NW15      29.95F
SHEBOYGAN      SUNNY     51  28  41 NW15G22   29.95F
WEST BEND      PTSUNNY   52  27  37 W9G18     29.96F
JUNEAU         MOSUNNY   51  32  47 SW9       29.97F
$$

LSZ147-162-301800-
LAKE SUPERIOR

STATION/POSITION TIME  TEMP    WIND        PRES    WAVE
                       AIR SEA DIR/SP/G            HT/PER
                 (UTC) (F)     (DEG/KT/KT) (MB)    (FT/S)
DEVILS ISLAND    1700   37     240/ 13/ 15 1014.1S
PORT WING        1600   39     290/  7/  9 1013.9
SAXON HARBOR     1640   45        CALM     1013.9R
$$

LMZ867-665-643>646-301800-
LAKE MICHIGAN

STATION/POSITION TIME  TEMP    WIND        PRES    WAVE
                       AIR SEA DIR/SP/G            HT/PER
                 (UTC) (F)     (DEG/KT/KT) (MB)    (FT/S)
NORTHPORT PIER   1600   38     320/  7/  9 1012.5R
KEWAUNEE LAKESHO 1600   46     300/ 13/ 20 1012.4R
SHEBOYGAN LAKESH 1700   50     280/ 14/ 17 1014.6F
PORT WASHINGTON  1600   51     310/ 10/ 20 1015.6F
MILWAUKEE LAKESH 1600   50     300/ 12/ 16   N/A
KENOSHA   LAKESH 1700   53     280/ 15/ 21 1015.6F
$$

TC  - TEMPERATURE IN CELSIUS
VSB - VISIBILITY IN STATUTE MILES
WCI - WIND CHILL INDEX
HX  - HEAT INDEX




USA.gov is the U.S. government's official web portal to all federal, state and local government web resources and services.